MMA337 VYMD-VTBS

Flight info

Callsign MMA337
Flight time 1h 50m
Altitude 33000
Route DOGIP1S DOGIP DCT NPT/N0408F250 W13 BGO/N0448F330 L507 IGONI DCT WILLA WILLA1C
Aircraft A320/M-SDE3FGHIRWY/LB1

Departure

Time 2026-04-25 06:41
Airport Mandalay International Airport (VYMD)

Arrival

Time 2026-04-25 08:31
Airport Suvarnabhumi Airport (VTBS)
Time Latitude Longitude Altitude Speed Heading
2026-04-25 05:52 21.70626 95.97116 329 ft 0 kts 260°
2026-04-25 06:30 21.70627 95.97121 328 ft 3 kts 261°
2026-04-25 06:30 21.70630 95.97145 325 ft 3 kts 265°
2026-04-25 06:31 21.70631 95.97170 325 ft 3 kts 274°
2026-04-25 06:31 21.70627 95.97193 325 ft 3 kts 296°
2026-04-25 06:31 21.70616 95.97207 324 ft 2 kts 349°
2026-04-25 06:31 21.70614 95.97208 324 ft 0 kts 351°
2026-04-25 06:34 21.70621 95.97207 326 ft 4 kts 350°
2026-04-25 06:34 21.70670 95.97198 327 ft 10 kts 351°
2026-04-25 06:34 21.70752 95.97183 327 ft 12 kts 351°
2026-04-25 06:34 21.70827 95.97186 328 ft 10 kts 30°
2026-04-25 06:35 21.70853 95.97250 328 ft 9 kts 80°
2026-04-25 06:35 21.70862 95.97312 326 ft 8 kts 81°
2026-04-25 06:35 21.70888 95.97375 325 ft 12 kts 36°
2026-04-25 06:35 21.70964 95.97377 326 ft 10 kts 350°
2026-04-25 06:36 21.71031 95.97365 324 ft 9 kts 351°
2026-04-25 06:36 21.71114 95.97351 326 ft 16 kts 351°
2026-04-25 06:36 21.71219 95.97332 325 ft 15 kts 351°
2026-04-25 06:36 21.71310 95.97316 326 ft 13 kts 351°
2026-04-25 06:37 21.71400 95.97300 325 ft 14 kts 350°
2026-04-25 06:37 21.71513 95.97280 327 ft 19 kts 351°
2026-04-25 06:37 21.71656 95.97255 326 ft 23 kts 351°
2026-04-25 06:37 21.71824 95.97225 326 ft 24 kts 351°
2026-04-25 06:38 21.71938 95.97216 328 ft 9 kts 20°
2026-04-25 06:38 21.71970 95.97264 325 ft 8 kts 78°
2026-04-25 06:38 21.71976 95.97298 328 ft 0 kts 80°
2026-04-25 06:39 21.71979 95.97317 328 ft 6 kts 80°
2026-04-25 06:39 21.71975 95.97381 326 ft 9 kts 114°
2026-04-25 06:39 21.71925 95.97416 326 ft 9 kts 168°
2026-04-25 06:39 21.71892 95.97422 328 ft 0 kts 170°
2026-04-25 06:40 21.71873 95.97425 326 ft 21 kts 170°
2026-04-25 06:40 21.71462 95.97498 322 ft 95 kts 171°
2026-04-25 06:40 21.70615 95.97649 324 ft 149 kts 170°
2026-04-25 06:41 21.69494 95.97844 665 ft 166 kts 171°
2026-04-25 06:41 21.68355 95.98056 1301 ft 166 kts 171°
2026-04-25 06:41 21.67216 95.98273 1978 ft 167 kts 172°
2026-04-25 06:41 21.66008 95.98501 2352 ft 186 kts 171°
2026-04-25 06:42 21.64654 95.98755 2595 ft 209 kts 172°
2026-04-25 06:42 21.63132 95.99039 2835 ft 234 kts 172°
2026-04-25 06:42 21.61451 95.99354 3169 ft 257 kts 171°
2026-04-25 06:42 21.59645 95.99694 3796 ft 267 kts 171°
2026-04-25 06:43 21.57808 96.00039 4625 ft 270 kts 171°
2026-04-25 06:43 21.55944 96.00388 5391 ft 274 kts 171°
2026-04-25 06:43 21.54054 96.00740 6174 ft 278 kts 171°
2026-04-25 06:43 21.52135 96.01095 6932 ft 281 kts 171°
2026-04-25 06:44 21.50200 96.01454 7715 ft 284 kts 172°
2026-04-25 06:44 21.48246 96.01815 8527 ft 286 kts 171°
2026-04-25 06:44 21.46277 96.02180 9311 ft 289 kts 171°
2026-04-25 06:44 21.44284 96.02551 10028 ft 295 kts 171°
2026-04-25 06:45 21.42189 96.02939 10247 ft 318 kts 171°
2026-04-25 06:45 21.40046 96.03303 10493 ft 336 kts 172°
2026-04-25 06:45 21.37676 96.03675 11080 ft 342 kts 173°
2026-04-25 06:45 21.35306 96.04034 11734 ft 346 kts 173°
2026-04-25 06:46 21.32915 96.04396 12448 ft 349 kts 173°
2026-04-25 06:46 21.30505 96.04765 13175 ft 351 kts 173°
2026-04-25 06:46 21.28111 96.05135 13700 ft 354 kts 173°
2026-04-25 06:46 21.25670 96.05513 13825 ft 354 kts 173°
2026-04-25 06:47 21.23230 96.05894 13852 ft 355 kts 173°
2026-04-25 06:47 21.20787 96.06276 13857 ft 355 kts 173°
2026-04-25 06:47 21.18343 96.06659 13856 ft 355 kts 173°
2026-04-25 06:47 21.15902 96.07042 13857 ft 355 kts 173°
2026-04-25 06:48 21.13461 96.07426 13859 ft 355 kts 173°
2026-04-25 06:48 21.11015 96.07811 13857 ft 355 kts 173°
2026-04-25 06:48 21.08570 96.08195 13857 ft 356 kts 173°
2026-04-25 06:48 21.06129 96.08638 13856 ft 355 kts 167°
2026-04-25 06:49 21.03799 96.09532 13872 ft 358 kts 155°
2026-04-25 06:49 21.01605 96.10817 13880 ft 360 kts 152°
2026-04-25 06:49 20.99423 96.12123 13880 ft 360 kts 152°
2026-04-25 06:49 20.97240 96.13425 13879 ft 360 kts 152°
2026-04-25 06:50 20.95053 96.14730 13880 ft 360 kts 152°
2026-04-25 06:50 20.92866 96.16034 13878 ft 360 kts 152°
2026-04-25 06:50 20.90677 96.17336 13880 ft 360 kts 152°
2026-04-25 06:50 20.88496 96.18638 13880 ft 359 kts 152°
2026-04-25 06:51 20.86318 96.19942 13879 ft 359 kts 152°
2026-04-25 06:51 20.84134 96.21248 13880 ft 360 kts 152°
2026-04-25 06:51 20.81950 96.22550 13880 ft 359 kts 152°
2026-04-25 06:51 20.79764 96.23850 13880 ft 360 kts 152°
2026-04-25 06:52 20.77571 96.25150 13909 ft 360 kts 152°
2026-04-25 06:52 20.75345 96.26357 13907 ft 359 kts 160°
2026-04-25 06:52 20.72948 96.27078 13911 ft 358 kts 172°
2026-04-25 06:52 20.70448 96.27207 14376 ft 361 kts 184°
2026-04-25 06:53 20.67935 96.27024 14982 ft 364 kts 185°
2026-04-25 06:53 20.65397 96.26846 15564 ft 367 kts 185°
2026-04-25 06:53 20.62843 96.26669 16127 ft 370 kts 185°
2026-04-25 06:53 20.60260 96.26491 16691 ft 373 kts 185°
2026-04-25 06:54 20.57655 96.26313 17239 ft 377 kts 185°
2026-04-25 06:54 20.55032 96.26131 17795 ft 380 kts 186°
2026-04-25 06:54 20.52384 96.25943 18318 ft 383 kts 186°
2026-04-25 06:54 20.49715 96.25750 18787 ft 386 kts 186°
2026-04-25 06:55 20.47025 96.25555 19244 ft 390 kts 186°
2026-04-25 06:55 20.44306 96.25360 19717 ft 393 kts 186°
2026-04-25 06:55 20.41570 96.25163 20178 ft 396 kts 187°
2026-04-25 06:55 20.38845 96.24968 20631 ft 399 kts 187°
2026-04-25 06:56 20.36059 96.24772 21081 ft 403 kts 187°
2026-04-25 06:56 20.33248 96.24573 21512 ft 407 kts 187°
2026-04-25 06:56 20.30412 96.24371 21953 ft 411 kts 187°
2026-04-25 06:56 20.27547 96.24164 22401 ft 414 kts 188°
2026-04-25 06:57 20.24665 96.23956 22830 ft 417 kts 188°
2026-04-25 06:57 20.21758 96.23746 23259 ft 420 kts 188°
2026-04-25 06:57 20.18825 96.23535 23641 ft 423 kts 188°
2026-04-25 06:57 20.15880 96.23325 23995 ft 426 kts 188°
2026-04-25 06:58 20.12912 96.23113 24350 ft 428 kts 188°
2026-04-25 06:58 20.09897 96.22897 24707 ft 430 kts 188°
2026-04-25 06:58 20.06950 96.22690 24843 ft 431 kts 188°
2026-04-25 06:58 20.03961 96.22484 24879 ft 430 kts 188°
2026-04-25 06:59 20.00972 96.22276 24876 ft 430 kts 188°
2026-04-25 06:59 19.97981 96.22066 24879 ft 431 kts 188°
2026-04-25 06:59 19.94991 96.21853 24871 ft 431 kts 188°
2026-04-25 06:59 19.92001 96.21638 24871 ft 431 kts 188°
2026-04-25 07:00 19.89002 96.21423 24871 ft 431 kts 188°
2026-04-25 07:00 19.86012 96.21210 24874 ft 431 kts 188°
2026-04-25 07:00 19.83017 96.20999 24874 ft 431 kts 188°
2026-04-25 07:00 19.80023 96.20792 24865 ft 431 kts 188°
2026-04-25 07:01 19.77028 96.20583 24865 ft 431 kts 188°
2026-04-25 07:01 19.74037 96.20371 24862 ft 431 kts 188°
2026-04-25 07:01 19.71040 96.20156 24863 ft 431 kts 188°
2026-04-25 07:01 19.68046 96.19939 24851 ft 431 kts 188°
2026-04-25 07:02 19.65057 96.19723 24857 ft 433 kts 188°
2026-04-25 07:02 19.62031 96.19670 24857 ft 437 kts 179°
2026-04-25 07:02 19.58989 96.20082 25137 ft 442 kts 176°
2026-04-25 07:02 19.55935 96.20532 25495 ft 444 kts 176°
2026-04-25 07:03 19.52862 96.20973 25829 ft 446 kts 176°
2026-04-25 07:03 19.49779 96.21407 26164 ft 448 kts 176°
2026-04-25 07:03 19.46686 96.21835 26493 ft 450 kts 176°
2026-04-25 07:03 19.43574 96.22266 26807 ft 452 kts 176°
2026-04-25 07:04 19.40448 96.22701 27116 ft 454 kts 176°
2026-04-25 07:04 19.37309 96.23144 27436 ft 456 kts 176°
2026-04-25 07:04 19.34160 96.23594 27739 ft 458 kts 176°
2026-04-25 07:04 19.30986 96.24050 28027 ft 461 kts 176°
2026-04-25 07:05 19.27799 96.24508 28298 ft 463 kts 176°
2026-04-25 07:05 19.24602 96.24964 28582 ft 465 kts 176°
2026-04-25 07:05 19.21388 96.25422 28850 ft 467 kts 176°
2026-04-25 07:05 19.18158 96.25881 29122 ft 469 kts 176°
2026-04-25 07:06 19.14921 96.26338 29382 ft 471 kts 176°
2026-04-25 07:06 19.11660 96.26796 29638 ft 473 kts 176°
2026-04-25 07:06 19.08398 96.27256 29885 ft 475 kts 176°
2026-04-25 07:06 19.05115 96.27722 30094 ft 477 kts 176°
2026-04-25 07:07 19.01865 96.28184 30289 ft 478 kts 176°
2026-04-25 07:07 18.98516 96.28659 30465 ft 480 kts 176°
2026-04-25 07:07 18.95241 96.29122 30643 ft 482 kts 176°
2026-04-25 07:07 18.91858 96.29599 30826 ft 484 kts 176°
2026-04-25 07:08 18.88561 96.30065 31041 ft 485 kts 176°
2026-04-25 07:08 18.85172 96.30544 31316 ft 484 kts 176°
2026-04-25 07:08 18.81840 96.31015 31579 ft 484 kts 176°
2026-04-25 07:08 18.78497 96.31487 31840 ft 484 kts 176°
2026-04-25 07:09 18.75201 96.31952 32098 ft 484 kts 176°
2026-04-25 07:09 18.71860 96.32423 32363 ft 484 kts 176°
2026-04-25 07:09 18.68527 96.32892 32614 ft 484 kts 176°
2026-04-25 07:09 18.65180 96.33363 32797 ft 485 kts 176°
2026-04-25 07:10 18.61867 96.33832 32842 ft 477 kts 176°
2026-04-25 07:10 18.55342 96.34757 32843 ft 472 kts 176°
2026-04-25 07:11 18.48835 96.35662 32841 ft 471 kts 176°
2026-04-25 07:11 18.42341 96.36561 32841 ft 471 kts 176°
2026-04-25 07:12 18.35838 96.37472 32840 ft 471 kts 176°
2026-04-25 07:12 18.26097 96.38855 32823 ft 470 kts 176°
2026-04-25 07:13 18.19614 96.39768 32828 ft 470 kts 176°
2026-04-25 07:13 18.13130 96.40675 32825 ft 470 kts 176°
2026-04-25 07:14 18.06643 96.41577 32825 ft 470 kts 176°
2026-04-25 07:14 18.00164 96.42485 32825 ft 470 kts 176°
2026-04-25 07:15 17.93682 96.43393 32819 ft 470 kts 176°
2026-04-25 07:15 17.87196 96.44296 32823 ft 470 kts 176°
2026-04-25 07:16 17.80708 96.45196 32822 ft 471 kts 176°
2026-04-25 07:16 17.74217 96.46100 32825 ft 471 kts 176°
2026-04-25 07:17 17.67723 96.47005 32826 ft 471 kts 176°
2026-04-25 07:17 17.61228 96.47909 32819 ft 471 kts 176°
2026-04-25 07:18 17.55822 96.48659 32821 ft 471 kts 176°
2026-04-25 07:18 17.48221 96.49717 32826 ft 472 kts 176°
2026-04-25 07:19 17.42817 96.50472 32828 ft 472 kts 176°
2026-04-25 07:19 17.36342 96.51666 32830 ft 476 kts 165°
2026-04-25 07:20 17.33279 96.52998 32832 ft 480 kts 154°
2026-04-25 07:20 17.30470 96.54897 32831 ft 482 kts 143°
2026-04-25 07:20 17.28013 96.57285 32823 ft 484 kts 132°
2026-04-25 07:20 17.25914 96.60029 32825 ft 484 kts 128°
2026-04-25 07:21 17.21798 96.65596 32833 ft 484 kts 128°
2026-04-25 07:21 17.17670 96.71166 32835 ft 484 kts 128°
2026-04-25 07:22 17.13543 96.76741 32837 ft 485 kts 128°
2026-04-25 07:22 17.09452 96.82278 32838 ft 485 kts 128°
2026-04-25 07:23 17.05325 96.87850 32851 ft 485 kts 128°
2026-04-25 07:23 17.01191 96.93418 32850 ft 485 kts 128°
2026-04-25 07:24 16.97055 96.98980 32847 ft 484 kts 128°
2026-04-25 07:24 16.92925 97.04533 32844 ft 484 kts 128°
2026-04-25 07:25 16.88799 97.10096 32851 ft 484 kts 128°
2026-04-25 07:25 16.84679 97.15641 32849 ft 483 kts 128°
2026-04-25 07:26 16.80551 97.21173 32848 ft 483 kts 128°
2026-04-25 07:26 16.76428 97.26701 32850 ft 483 kts 128°
2026-04-25 07:27 16.72304 97.32223 32843 ft 482 kts 128°
2026-04-25 07:27 16.68183 97.37747 32841 ft 482 kts 128°
2026-04-25 07:28 16.64063 97.43268 32843 ft 482 kts 128°
2026-04-25 07:28 16.59937 97.48778 32846 ft 482 kts 128°
2026-04-25 07:29 16.55807 97.54288 32844 ft 482 kts 128°
2026-04-25 07:29 16.51709 97.59756 32835 ft 482 kts 128°
2026-04-25 07:30 16.47559 97.65291 32845 ft 481 kts 128°
2026-04-25 07:30 16.43462 97.70750 32847 ft 481 kts 128°
2026-04-25 07:31 16.39340 97.76235 32838 ft 481 kts 128°
2026-04-25 07:31 16.34869 97.81386 32838 ft 480 kts 140°
2026-04-25 07:32 16.29818 97.85930 32841 ft 480 kts 140°
2026-04-25 07:32 16.24764 97.90472 32833 ft 480 kts 140°
2026-04-25 07:33 16.19716 97.95014 32827 ft 480 kts 140°
2026-04-25 07:33 16.14671 97.99555 32838 ft 479 kts 140°
2026-04-25 07:34 16.09625 98.04091 32838 ft 479 kts 140°
2026-04-25 07:34 16.04586 98.08612 32839 ft 479 kts 140°
2026-04-25 07:35 15.99546 98.13130 32840 ft 478 kts 140°
2026-04-25 07:35 15.94506 98.17647 32837 ft 478 kts 140°
2026-04-25 07:36 15.89465 98.22156 32842 ft 478 kts 140°
2026-04-25 07:36 15.84426 98.26663 32841 ft 478 kts 140°
2026-04-25 07:37 15.79389 98.31174 32845 ft 477 kts 140°
2026-04-25 07:37 15.74367 98.35673 32876 ft 477 kts 140°
2026-04-25 07:38 15.69345 98.40163 32875 ft 476 kts 140°
2026-04-25 07:38 15.64326 98.44642 32873 ft 476 kts 140°
2026-04-25 07:39 15.59305 98.49119 32879 ft 476 kts 140°
2026-04-25 07:39 15.54323 98.53566 32888 ft 475 kts 140°
2026-04-25 07:40 15.49310 98.58038 32886 ft 475 kts 139°
2026-04-25 07:40 15.44923 98.63144 32891 ft 475 kts 129°
2026-04-25 07:41 15.40764 98.68469 32914 ft 475 kts 129°
2026-04-25 07:41 15.36598 98.73777 32920 ft 474 kts 129°
2026-04-25 07:42 15.32437 98.79075 32918 ft 474 kts 129°
2026-04-25 07:42 15.28287 98.84376 32926 ft 473 kts 129°
2026-04-25 07:43 15.24138 98.89663 32919 ft 473 kts 129°
2026-04-25 07:43 15.19989 98.94957 32923 ft 473 kts 129°
2026-04-25 07:44 15.15844 99.00235 32915 ft 473 kts 129°
2026-04-25 07:44 15.11694 99.05515 32915 ft 473 kts 129°
2026-04-25 07:45 15.07544 99.10791 32907 ft 473 kts 129°
2026-04-25 07:45 15.03386 99.16079 32904 ft 473 kts 129°
2026-04-25 07:46 14.99226 99.21351 32896 ft 473 kts 129°
2026-04-25 07:46 14.95065 99.26631 32888 ft 473 kts 129°
2026-04-25 07:47 14.90912 99.31910 32885 ft 473 kts 129°
2026-04-25 07:47 14.86726 99.37214 32580 ft 477 kts 129°
2026-04-25 07:48 14.84638 99.39856 31993 ft 474 kts 129°
2026-04-25 07:48 14.82558 99.42485 31399 ft 471 kts 129°
2026-04-25 07:48 14.80501 99.45085 30806 ft 468 kts 129°
2026-04-25 07:48 14.78437 99.47694 30225 ft 465 kts 129°
2026-04-25 07:49 14.76421 99.50244 29583 ft 463 kts 129°
2026-04-25 07:49 14.74399 99.52800 29026 ft 458 kts 129°
2026-04-25 07:49 14.72392 99.55334 28423 ft 453 kts 129°
2026-04-25 07:49 14.70405 99.57847 27867 ft 449 kts 129°
2026-04-25 07:50 14.68440 99.60335 27319 ft 445 kts 129°
2026-04-25 07:50 14.66494 99.62798 26780 ft 441 kts 129°
2026-04-25 07:50 14.64563 99.65236 26257 ft 436 kts 129°
2026-04-25 07:50 14.62648 99.67651 25739 ft 433 kts 129°
2026-04-25 07:51 14.60752 99.70043 25235 ft 428 kts 129°
2026-04-25 07:51 14.58874 99.72414 24749 ft 425 kts 129°
2026-04-25 07:51 14.57010 99.74763 24261 ft 422 kts 129°
2026-04-25 07:51 14.55159 99.77092 23769 ft 414 kts 129°
2026-04-25 07:52 14.53360 99.79355 23251 ft 401 kts 129°
2026-04-25 07:52 14.51600 99.81568 22752 ft 398 kts 129°
2026-04-25 07:52 14.49860 99.83757 22278 ft 395 kts 129°
2026-04-25 07:52 14.48117 99.85953 21795 ft 392 kts 129°
2026-04-25 07:53 14.46394 99.88125 21306 ft 390 kts 129°
2026-04-25 07:53 14.44839 99.90405 20820 ft 389 kts 119°
2026-04-25 07:53 14.43743 99.92944 20319 ft 387 kts 108°
2026-04-25 07:53 14.43047 99.95623 19822 ft 386 kts 104°
2026-04-25 07:54 14.42384 99.98305 19325 ft 386 kts 104°
2026-04-25 07:54 14.41721 100.00975 18823 ft 382 kts 104°
2026-04-25 07:54 14.41066 100.03595 18340 ft 370 kts 104°
2026-04-25 07:54 14.40432 100.06125 17831 ft 359 kts 104°
2026-04-25 07:55 14.39806 100.08635 17563 ft 365 kts 104°
2026-04-25 07:55 14.39174 100.11171 17301 ft 366 kts 104°
2026-04-25 07:55 14.38542 100.13704 17033 ft 366 kts 104°
2026-04-25 07:55 14.37906 100.16246 16761 ft 365 kts 104°
2026-04-25 07:56 14.37277 100.18768 16489 ft 361 kts 104°
2026-04-25 07:56 14.36650 100.21269 16222 ft 360 kts 104°
2026-04-25 07:56 14.36023 100.23764 15956 ft 358 kts 104°
2026-04-25 07:56 14.35401 100.26241 15690 ft 356 kts 104°
2026-04-25 07:57 14.34784 100.28703 15436 ft 354 kts 104°
2026-04-25 07:57 14.34167 100.31158 15171 ft 353 kts 104°
2026-04-25 07:57 14.33555 100.33605 14912 ft 351 kts 104°
2026-04-25 07:57 14.32948 100.36039 14543 ft 351 kts 104°
2026-04-25 07:58 14.32340 100.38473 14146 ft 350 kts 105°
2026-04-25 07:58 14.31737 100.40888 13757 ft 346 kts 104°
2026-04-25 07:58 14.31142 100.43272 13449 ft 338 kts 104°
2026-04-25 07:58 14.30562 100.45582 13316 ft 328 kts 105°
2026-04-25 07:59 14.29996 100.47825 13116 ft 320 kts 105°
2026-04-25 07:59 14.29440 100.50030 12880 ft 316 kts 105°
2026-04-25 07:59 14.28898 100.52182 12667 ft 313 kts 105°
2026-04-25 07:59 14.28352 100.54343 12400 ft 310 kts 105°
2026-04-25 08:00 14.27811 100.56490 12136 ft 308 kts 105°
2026-04-25 08:00 14.27273 100.58623 11872 ft 306 kts 105°
2026-04-25 08:00 14.26740 100.60735 11619 ft 303 kts 105°
2026-04-25 08:00 14.26214 100.62823 11358 ft 300 kts 105°
2026-04-25 08:01 14.25551 100.64843 11099 ft 297 kts 117°
2026-04-25 08:01 14.24353 100.66563 10918 ft 295 kts 135°
2026-04-25 08:01 14.22707 100.67839 10588 ft 297 kts 152°
2026-04-25 08:01 14.20772 100.68588 10200 ft 297 kts 161°
2026-04-25 08:02 14.18804 100.69237 9818 ft 297 kts 161°
2026-04-25 08:02 14.16847 100.69890 9457 ft 292 kts 160°
2026-04-25 08:02 14.14947 100.70530 9014 ft 285 kts 160°
2026-04-25 08:02 14.13068 100.71166 8646 ft 282 kts 161°
2026-04-25 08:03 14.11200 100.71797 8277 ft 283 kts 161°
2026-04-25 08:03 14.09337 100.72424 7909 ft 281 kts 161°
2026-04-25 08:03 14.07486 100.73048 7550 ft 279 kts 160°
2026-04-25 08:03 14.05778 100.73953 7170 ft 275 kts 142°
2026-04-25 08:04 14.04460 100.75353 6811 ft 273 kts 125°
2026-04-25 08:04 14.03631 100.77098 6430 ft 272 kts 108°
2026-04-25 08:04 14.03123 100.78978 6047 ft 272 kts 106°
2026-04-25 08:04 14.02633 100.80813 5871 ft 256 kts 107°
2026-04-25 08:05 14.02075 100.82479 5586 ft 241 kts 122°
2026-04-25 08:05 14.00911 100.83636 5405 ft 236 kts 153°
2026-04-25 08:05 13.99307 100.83994 5269 ft 238 kts 184°
2026-04-25 08:05 13.97680 100.83647 4937 ft 241 kts 193°
2026-04-25 08:06 13.96088 100.83200 4531 ft 234 kts 193°
2026-04-25 08:06 13.94535 100.82779 4138 ft 228 kts 193°
2026-04-25 08:06 13.93019 100.82379 3774 ft 222 kts 193°
2026-04-25 08:06 13.92040 100.82121 3557 ft 217 kts 193°
2026-04-25 08:07 13.90139 100.81621 3310 ft 200 kts 193°
2026-04-25 08:07 13.89253 100.81387 3263 ft 196 kts 193°
2026-04-25 08:07 13.87505 100.80928 3135 ft 193 kts 193°
2026-04-25 08:07 13.86646 100.80702 3082 ft 192 kts 193°
2026-04-25 08:08 13.85351 100.80361 3021 ft 192 kts 194°
2026-04-25 08:08 13.84082 100.80026 2850 ft 184 kts 193°
2026-04-25 08:08 13.82880 100.79710 2656 ft 167 kts 193°
2026-04-25 08:08 13.81811 100.79428 2448 ft 152 kts 193°
2026-04-25 08:09 13.80810 100.79165 2266 ft 146 kts 193°
2026-04-25 08:09 13.79861 100.78915 2088 ft 143 kts 193°
2026-04-25 08:09 13.78898 100.78662 1911 ft 143 kts 193°
2026-04-25 08:09 13.77940 100.78410 1731 ft 142 kts 193°
2026-04-25 08:10 13.77046 100.78175 1562 ft 142 kts 193°
2026-04-25 08:10 13.76078 100.77920 1375 ft 141 kts 194°
2026-04-25 08:10 13.75128 100.77670 1200 ft 141 kts 193°
2026-04-25 08:10 13.74186 100.77423 1020 ft 139 kts 194°
2026-04-25 08:11 13.73250 100.77177 854 ft 138 kts 194°
2026-04-25 08:11 13.72325 100.76933 678 ft 137 kts 195°
2026-04-25 08:11 13.71409 100.76692 506 ft 136 kts 195°
2026-04-25 08:11 13.70501 100.76455 330 ft 133 kts 195°
2026-04-25 08:12 13.69603 100.76222 154 ft 135 kts 195°
2026-04-25 08:12 13.68693 100.75979 31 ft 131 kts 196°
2026-04-25 08:12 13.67863 100.75747 85 ft 137 kts 197°
2026-04-25 08:12 13.66862 100.75446 658 ft 159 kts 197°
2026-04-25 08:13 13.65765 100.75124 1442 ft 165 kts 195°
2026-04-25 08:13 13.64629 100.74799 2159 ft 178 kts 194°
2026-04-25 08:13 13.63359 100.74546 2579 ft 195 kts 177°
2026-04-25 08:14 13.61354 100.76263 3873 ft 191 kts 109°
2026-04-25 08:14 13.60961 100.77547 4576 ft 187 kts 97°
2026-04-25 08:14 13.61075 100.78885 4936 ft 192 kts 72°
2026-04-25 08:14 13.61709 100.80085 4997 ft 191 kts 60°
2026-04-25 08:15 13.62399 100.81254 4999 ft 192 kts 60°
2026-04-25 08:15 13.63114 100.82477 5000 ft 212 kts 60°
2026-04-25 08:15 13.63885 100.83810 5004 ft 221 kts 60°
2026-04-25 08:15 13.64673 100.85177 5006 ft 223 kts 60°
2026-04-25 08:16 13.65462 100.86548 5003 ft 223 kts 60°
2026-04-25 08:16 13.66250 100.87917 5006 ft 222 kts 60°
2026-04-25 08:16 13.67040 100.89286 5004 ft 222 kts 60°
2026-04-25 08:16 13.67829 100.90657 5004 ft 223 kts 60°
2026-04-25 08:17 13.68617 100.92028 4999 ft 223 kts 60°
2026-04-25 08:17 13.69405 100.93398 5006 ft 223 kts 60°
2026-04-25 08:17 13.70194 100.94771 5004 ft 223 kts 60°
2026-04-25 08:17 13.70981 100.96143 4999 ft 223 kts 60°
2026-04-25 08:18 13.71830 100.97474 5002 ft 223 kts 48°
2026-04-25 08:18 13.73117 100.98359 5001 ft 226 kts 20°
2026-04-25 08:18 13.74643 100.98785 5000 ft 227 kts 15°
2026-04-25 08:18 13.76173 100.99190 5000 ft 227 kts 15°
2026-04-25 08:19 13.77703 100.99595 4998 ft 227 kts 16°
2026-04-25 08:19 13.79230 100.99999 4998 ft 227 kts 16°
2026-04-25 08:19 13.80759 101.00403 4995 ft 227 kts 16°
2026-04-25 08:19 13.82287 101.00809 4995 ft 227 kts 16°
2026-04-25 08:20 13.83798 101.01213 4995 ft 227 kts 16°
2026-04-25 08:20 13.85327 101.01622 4996 ft 227 kts 17°
2026-04-25 08:20 13.86875 101.01946 4995 ft 228 kts
2026-04-25 08:20 13.88418 101.01665 4986 ft 222 kts 338°
2026-04-25 08:21 13.89648 101.00801 4910 ft 210 kts 313°
2026-04-25 08:21 13.90532 100.99635 4856 ft 205 kts 307°
2026-04-25 08:21 13.91390 100.98472 4782 ft 204 kts 308°
2026-04-25 08:21 13.92253 100.97306 4715 ft 205 kts 308°
2026-04-25 08:22 13.93112 100.96144 4624 ft 203 kts 308°
2026-04-25 08:22 13.93963 100.94990 4499 ft 202 kts 308°
2026-04-25 08:22 13.94815 100.93838 4378 ft 201 kts 308°
2026-04-25 08:22 13.95662 100.92692 4255 ft 201 kts 307°
2026-04-25 08:23 13.96509 100.91547 4126 ft 201 kts 307°
2026-04-25 08:23 13.97355 100.90403 4014 ft 201 kts 306°
2026-04-25 08:23 13.98176 100.89240 3930 ft 200 kts 299°
2026-04-25 08:23 13.98663 100.87902 3994 ft 201 kts 279°
2026-04-25 08:24 13.98690 100.86478 3992 ft 199 kts 259°
2026-04-25 08:24 13.98259 100.85142 3965 ft 197 kts 240°
2026-04-25 08:24 13.97432 100.84038 3841 ft 194 kts 220°
2026-04-25 08:24 13.96307 100.83292 3721 ft 193 kts 201°
2026-04-25 08:25 13.95015 100.82904 3600 ft 194 kts 193°
2026-04-25 08:25 13.93711 100.82562 3480 ft 194 kts 193°
2026-04-25 08:25 13.92405 100.82218 3361 ft 194 kts 193°
2026-04-25 08:25 13.91102 100.81875 3243 ft 193 kts 193°
2026-04-25 08:26 13.89799 100.81532 3082 ft 194 kts 194°
2026-04-25 08:26 13.88501 100.81190 2901 ft 191 kts 193°
2026-04-25 08:26 13.87217 100.80852 2688 ft 190 kts 193°
2026-04-25 08:26 13.85961 100.80521 2620 ft 179 kts 193°
2026-04-25 08:27 13.84811 100.80218 2570 ft 165 kts 194°
2026-04-25 08:27 13.83758 100.79941 2432 ft 147 kts 193°
2026-04-25 08:27 13.82792 100.79686 2178 ft 141 kts 193°
2026-04-25 08:27 13.81849 100.79439 1835 ft 139 kts 193°
2026-04-25 08:28 13.80917 100.79193 1624 ft 137 kts 193°
2026-04-25 08:28 13.79985 100.78948 1610 ft 139 kts 193°
2026-04-25 08:28 13.79008 100.78691 1625 ft 158 kts 193°
2026-04-25 08:28 13.77901 100.78400 1611 ft 163 kts 193°
2026-04-25 08:29 13.76869 100.78128 1480 ft 149 kts 193°
2026-04-25 08:29 13.75900 100.77873 1324 ft 142 kts 194°
2026-04-25 08:29 13.74951 100.77624 1161 ft 140 kts 194°
2026-04-25 08:29 13.74012 100.77377 992 ft 138 kts 194°
2026-04-25 08:30 13.73081 100.77132 824 ft 138 kts 194°
2026-04-25 08:30 13.72159 100.76889 651 ft 135 kts 195°
2026-04-25 08:30 13.71260 100.76655 500 ft 134 kts 195°
2026-04-25 08:30 13.70361 100.76425 296 ft 131 kts 195°
2026-04-25 08:31 13.69473 100.76195 118 ft 132 kts 197°
2026-04-25 08:31 13.68599 100.75945 18 ft 122 kts 188°
2026-04-25 08:31 13.67943 100.75781 11 ft 72 kts 194°
2026-04-25 08:31 13.67626 100.75685 11 ft 25 kts 213°
2026-04-25 08:32 13.67489 100.75578 13 ft 25 kts 223°
2026-04-25 08:32 13.67447 100.75514 13 ft 0 kts 265°